CAPE
2551 2541 2655 2712 2851 3084 2888 2530 2514 1627 1634 880 1137 732 167 145 143 106 79 6 13 24 0 0 0 9 0 5 10 16 3 15 7 0 2 15 62 35 31 52 75 79 51
2338 2711 2793 2772 2783 2773 3107 3019 2759 2148 2041 1333 1018 806 182 88 53 118 100 37 0 0 0 0 6 24 140 297 1 31 29 1 9 9 1 2 12 40 74 69 34 38 56
2064 2403 2720 2616 2871 2746 3067 3008 3124 2960 2413 1582 1119 863 187 122 102 129 128 91 70 18 4 11 49 157 157 83 134 54 27 34 40 12 24 32 17 16 16 92 62 79 71
1549 1701 2334 2760 2795 2760 2970 3079 3188 2980 2675 1592 1041 752 248 226 121 142 139 175 281 261 101 78 144 209 236 256 241 246 173 85 51 51 42 46 44 31 97 45 31 19 17
1714 1900 2299 2912 2838 2760 2720 3184 3197 3004 2569 1585 839 470 412 122 138 248 58 51 249 315 88 92 194 287 279 361 315 170 194 87 80 76 36 21 30 57 54 63 69 56 36
2324 2366 2717 3287 3118 3011 3037 3248 3112 2693 2203 1292 514 108 12 0 0 5 92 1 207 238 125 251 448 514 236 124 126 144 91 46 30 40 18 0 33 41 23 20 33 29 0
2597 3049 3072 3578 3515 3576 3376 3084 2687 2013 1627 774 246 0 0 27 2 2 0 7 63 221 366 492 592 541 166 209 258 157 83 38 33 42 63 91 56 100 34 5 4 9 0
3098 3082 3340 3504 3700 3609 3256 2779 2129 1733 1398 712 194 4 95 118 29 0 0 10 21 63 285 587 750 736 664 269 101 58 179 317 217 118 62 102 47 9 17 3 0 0 0
3001 3104 3237 3289 3455 3202 2841 2479 1812 1587 1435 720 258 80 383 488 165 10 23 60 233 437 619 731 930 907 295 78 56 35 71 98 145 19 0 0 0 0 0 0 0 2 6
2851 2911 3013 3136 3003 2744 2494 2161 1827 1764 1336 934 502 555 765 790 378 109 150 314 417 566 612 1022 475 78 54 40 48 16 75 135 70 33 67 0 0 1 0 0 18 32 28
2296 2495 2742 2737 2676 2441 2112 2023 1917 1638 1294 895 625 738 920 863 675 209 128 362 446 568 721 554 365 68 4 0 0 0 19 0 26 0 0 0 24 14 5 31 57 35 21
2463 2557 2677 2554 2322 2203 1914 1994 1722 1304 1156 1121 981 1156 1078 939 597 178 11 19 138 469 435 331 413 4 0 0 0 0 0 0 0 0 1 22 11 0 0 1 0 0 0
2651 2780 2518 2100 1903 1968 1900 1747 1222 1076 827 998 855 1101 1111 950 668 34 1 0 7 51 158 11 7 0 0 0 0 0 0 0 0 8 18 0 0 0 0 0 7 10 13
2462 1976 1852 1619 1575 1294 1321 1047 801 720 868 1083 1116 1063 1036 816 556 67 0 0 0 2 0 0 0 0 0 0 0 0 0 0 8 0 0 0 0 0 0 0 0 0 0
2313 2017 1676 1476 1281 934 655 611 826 287 498 777 766 860 544 95 10 20 5 11 85 53 54 15 1 0 4 10 12 10 7 8 3 0 0 0 0 0 0 0 0 0 0
2016 1765 1409 1169 1044 843 504 37 0 0 0 0 0 32 24 5 0 0 0 0 0 0 0 0 0 2 16 20 22 25 17 2 0 0 0 0 0 0 0 0 0 0 0
1457 1339 1047 1092 1010 1102 722 664 342 0 0 0 0 0 0 0 0 0 0 0 0 0 0 0 0 2 5 8 6 1 0 0 0 0 0 0 0 0 0 0 0 0 0
1329 904 869 726 591 612 598 415 177 57 4 0 0 0 0 0 0 0 0 0 0 0 0 0 0 3 1 0 0 0 0 0 0 0 0 0 0 0 0 0 0 0 0
1130 658 692 604 509 305 161 146 206 202 149 0 0 0 0 0 0 0 0 0 0 1 2 0 0 0 0 0 0 0 0 0 0 0 0 0 0 0 0 0 0 0 0
224 225 423 264 68 23 54 32 100 143 117 13 0 0 0 0 0 0 0 0 0 0 0 0 0 0 0 0 0 0 0 0 0 0 0 0 0 0 0 0 0 0 0
1 4 13 137 101 106 159 134 117 123 134 140 128 23 0 0 0 13 13 4 0 0 0 0 0 0 0 0 0 0 0 0 0 0 0 0 0 0 0 0 0 0 0
98 101 17 127 93 90 93 90 94 92 110 121 29 7 0 1 3 24 30 12 4 7 7 0 0 0 0 0 0 0 0 0 0 0 0 0 0 0 0 0 0 0 0
71 51 47 48 102 72 90 157 134 124 139 108 12 8 2 41 8 20 10 5 5 9 11 0 0 0 0 0 0 0 0 0 0 0 0 0 0 0 0 0 0 0 0
56 80 93 99 111 137 126 74 49 60 109 128 84 57 19 7 12 21 24 5 16 4 0 2 0 0 0 0 0 0 0 0 0 0 0 0 0 0 0 0 0 0 0
78 69 60 79 75 61 55 40 55 60 31 26 30 24 24 24 12 6 15 0 0 0 0 3 1 0 0 0 0 0 0 0 0 0 0 0 0 0 0 0 0 0 0
53 29 20 23 7 2 2 4 20 33 32 33 33 49 26 16 13 14 18 13 3 6 5 13 2 0 0 0 0 0 0 0 0 0 0 0 0 0 0 0 0 0 0
CIN
-60 -33 -21 -30 -13 -11 -6 -17 -13 -37 -41 -73 -100 -117 -229 -187 -175 -180 -99 -50 -73 -73 -2 -0 -0 -12 -0 -1 -1 -2 -0 -1 -1 -0 -1 -2 -4 -3 -3 -4 -1 -0 -1
-75 -45 -56 -54 -37 -38 -18 -6 -21 -48 -27 -101 -116 -150 -230 -251 -235 -156 -135 -130 -0 -0 -0 -0 -57 -30 -3 -5 -1 -4 -3 -0 -4 -1 -1 -3 -4 -2 -2 -3 -2 -1 -2
-93 -69 -57 -77 -55 -46 -26 -24 -25 -20 -33 -102 -143 -166 -258 -215 -173 -174 -162 -111 -68 -76 -83 -40 -12 -1 -2 -3 -5 -11 -10 -2 -1 -2 -1 -6 -6 -8 -17 -2 -9 -6 -7
-96 -91 -96 -94 -80 -58 -36 -34 -22 -33 -31 -148 -186 -230 -275 -215 -188 -144 -158 -80 -34 -23 -52 -16 -4 -1 -2 -8 -6 -3 -7 -2 -2 -2 -2 -5 -7 -11 -4 -4 -11 -24 -15
-77 -85 -93 -85 -65 -49 -56 -36 -23 -23 -59 -149 -226 -311 -289 -266 -178 -141 -171 -132 -41 -7 -130 -12 -25 -13 -41 -24 -33 -5 -4 -10 -3 -1 -1 -1 -1 -1 -14 -15 -4 -2 -8
-48 -64 -66 -40 -57 -76 -60 -29 -28 -47 -53 -143 -269 -377 -470 -0 -0 -117 -111 -95 -27 -6 -45 -11 -1 -5 -46 -47 -42 -31 -32 -19 -27 -21 -11 -0 -7 -8 -2 -4 -2 -1 -0
-66 -49 -31 -21 -59 -53 -41 -45 -66 -116 -128 -271 -426 -69 -0 -358 -84 -200 -0 -61 -32 -2 -2 -6 -7 -0 -33 -59 -53 -56 -76 -46 -58 -38 -15 -50 -15 -16 -11 -2 -2 -1 -0
-96 -82 -65 -44 -35 -34 -61 -104 -141 -140 -187 -266 -460 -421 -355 -204 -213 -0 -0 -40 -26 -7 -5 -2 -3 -1 -4 -39 -50 -36 -29 -13 -7 -27 -20 -12 -3 -2 -17 -11 -0 -0 -0
-142 -116 -87 -78 -57 -65 -94 -113 -166 -181 -196 -292 -361 -382 -216 -82 -144 -242 -155 -56 -20 -7 -5 -1 -1 -14 -42 -101 -88 -58 -50 -61 -26 -16 -0 -0 -0 -0 -0 -0 -0 -1 -1
-165 -150 -118 -87 -90 -96 -108 -132 -140 -112 -143 -181 -239 -140 -39 -6 -66 -138 -56 -35 -16 -10 -6 -3 -46 -100 -133 -129 -83 -82 -30 -11 -1 -1 -5 -0 -0 -1 -0 -0 -21 -1 -1
-182 -164 -144 -121 -105 -115 -138 -118 -91 -79 -108 -142 -143 -70 -4 -2 -9 -81 -74 -39 -6 -1 -8 -6 -22 -137 -120 -0 -0 -0 -25 -0 -9 -0 -0 -0 -1 -2 -1 -5 -25 -3 -1
-168 -149 -131 -111 -109 -118 -134 -91 -88 -108 -78 -33 -23 -1 -1 -1 -9 -91 -168 -56 -84 -44 -8 -8 -22 -82 -0 -0 -0 -0 -0 -0 -0 -0 -2 -2 -2 -0 -0 -1 -0 -0 -0
-104 -86 -110 -146 -131 -108 -72 -76 -106 -72 -66 -11 -17 -1 -1 -2 -16 -158 -43 -3 -168 -109 -68 -166 -79 -0 -0 -0 -0 -0 -0 -0 -0 -1 -1 -0 -0 -0 -0 -1 -2 -1 -2
-104 -173 -170 -162 -138 -158 -104 -104 -94 -85 -19 -1 -0 -0 -0 -0 -3 -96 -0 -0 -0 -71 -28 -0 -0 -0 -0 -0 -0 -0 -0 -0 -2 -0 -0 -0 -0 -0 -0 -0 -0 -0 -0
-75 -91 -119 -125 -126 -149 -221 -221 -54 -120 -101 -6 -1 -1 -0 -48 -36 -108 -77 -161 -93 -41 -45 -5 -8 -0 -1 -9 -24 -25 -20 -2 -1 -0 -0 -0 -0 -0 -0 -0 -0 -0 -0
-68 -76 -113 -113 -96 -96 -139 -227 -0 -0 -0 -0 -0 -23 -6 -21 -0 -0 -0 -0 -0 -0 -0 -0 -0 -1 -2 -3 -2 -2 -2 -6 -0 -0 -0 -0 -0 -0 -0 -0 -0 -0 -0
-46 -45 -83 -20 -22 -2 -7 -15 -70 -0 -0 -0 -0 -0 -0 -0 -0 -0 -0 -0 -0 -0 -0 -0 -0 -2 -2 -1 -1 -2 -0 -0 -0 -0 -0 -0 -0 -0 -0 -0 -0 -0 -0
-22 -63 -45 -10 -3 -2 -5 -18 -26 -103 -21 -0 -0 -0 -0 -0 -0 -0 -0 -0 -0 -0 -0 -0 -0 -2 -1 -0 -0 -0 -0 -0 -0 -0 -0 -0 -0 -0 -0 -0 -0 -0 -0
-20 -36 -7 -5 -2 -6 -33 -40 -23 -2 -27 -0 -0 -0 -0 -0 -0 -0 -0 -0 -0 -1 -1 -0 -0 -0 -0 -0 -0 -0 -0 -0 -0 -0 -0 -0 -0 -0 -0 -0 -0 -0 -0
-82 -49 -8 -8 -52 -52 -36 -27 -6 -11 -2 -51 -0 -0 -0 -0 -0 -0 -0 -0 -0 -0 -0 -0 -0 -0 -0 -0 -0 -0 -0 -0 -0 -0 -0 -0 -0 -0 -0 -0 -0 -0 -0
-0 -22 -52 -9 -7 -9 -4 -14 -26 -2 -3 -4 -9 -34 -0 -0 -0 -5 -3 -1 -0 -0 -0 -0 -0 -0 -0 -0 -0 -0 -0 -0 -0 -0 -0 -0 -0 -0 -0 -0 -0 -0 -0
-32 -5 -29 -6 -26 -1 -3 -3 -2 -1 -2 -2 -69 -95 -0 -10 -1 -2 -3 -8 -2 -1 -1 -0 -0 -0 -0 -0 -0 -0 -0 -0 -0 -0 -0 -0 -0 -0 -0 -0 -0 -0 -0
-22 -2 -3 -1 -5 -14 -9 -2 -2 -6 -3 -15 -68 -77 -69 -13 -2 -2 -11 -16 -13 -2 -1 -0 -0 -0 -0 -0 -0 -0 -0 -0 -0 -0 -0 -0 -0 -0 -0 -0 -0 -0 -0
-3 -2 -3 -7 -6 -6 -2 -1 -13 -15 -16 -15 -18 -12 -9 -3 -12 -9 -5 -12 -1 -7 -0 -2 -0 -0 -0 -0 -0 -0 -0 -0 -0 -0 -0 -0 -0 -0 -0 -0 -0 -0 -0
-1 -4 -6 -6 -10 -2 -3 -2 -4 -2 -1 -7 -11 -19 -18 -19 -10 -3 -3 -0 -0 -0 -1 -2 -0 -0 -0 -0 -0 -0 -0 -0 -0 -0 -0 -0 -0 -0 -0 -0 -0 -0 -0
-5 -3 -1 -3 -2 -1 -1 -1 -2 -6 -10 -12 -6 -23 -19 -24 -20 -16 -15 -19 -20 -11 -4 -1 -1 -0 -0 -0 -0 -0 -0 -0 -0 -0 -0 -0 -0 -0 -0 -0 -0 -0 -0
Wind_Speed
16 14 13 14 16 15 16 16 13 13 8 7 6 5 3 3 12 15 17 15 13 13 14 18 18 19 21 23 24 25 27 28 31 30 32 31 30 30 28 27 27 30 29
16 14 16 16 17 17 18 15 13 13 10 10 8 7 6 2 3 7 5 11 12 13 11 10 14 15 14 17 21 22 25 27 28 33 30 28 27 30 27 29 26 27 29
20 19 17 18 18 16 14 14 15 14 13 11 10 9 6 5 2 4 10 10 11 11 14 11 13 15 17 21 25 28 29 28 29 35 36 33 32 29 34 32 33 26 27
20 21 19 18 18 16 14 15 14 15 14 14 11 10 8 8 6 6 10 10 8 10 14 13 13 16 17 19 22 24 24 25 29 33 32 31 28 29 26 32 34 31 30
18 20 19 16 17 15 14 15 13 13 14 13 12 10 10 9 10 10 11 9 8 9 11 13 14 14 16 21 24 28 31 32 33 36 39 33 34 35 37 38 39 37 33
19 21 16 15 15 16 15 12 11 12 12 12 12 11 11 13 13 12 11 9 8 12 12 11 14 16 19 18 22 27 26 29 27 29 30 30 34 36 36 37 36 35 38
18 16 13 12 11 11 10 10 10 10 11 12 12 12 14 15 14 13 12 8 9 11 12 12 11 14 17 17 21 23 25 21 23 27 29 30 34 33 35 37 36 35 34
13 13 12 11 10 8 8 9 8 9 9 10 11 12 16 15 14 12 11 10 10 12 14 13 15 15 14 18 22 25 21 24 27 26 25 28 29 31 32 33 34 32 29
11 10 10 10 9 7 7 7 7 8 10 10 11 14 14 14 13 11 10 10 11 13 12 15 19 22 18 21 26 22 22 23 28 26 26 26 26 26 24 29 31 32 33
9 8 7 6 6 5 6 7 9 10 11 12 13 14 13 14 13 9 8 9 10 14 11 13 19 24 22 21 21 21 25 27 28 28 26 28 26 21 18 17 22 27 32
7 5 5 4 5 6 8 9 11 12 14 14 15 13 13 14 12 7 7 9 9 11 13 18 18 17 18 17 20 24 26 29 28 30 30 27 24 26 25 24 18 24 31
5 4 4 5 6 9 9 10 12 13 15 15 14 14 16 13 12 10 9 7 14 14 16 24 16 15 17 20 23 25 25 27 27 28 26 27 27 28 28 29 31 26 21
5 5 6 7 9 10 9 11 14 15 15 13 13 14 17 16 15 13 10 11 11 13 22 21 14 15 20 24 25 25 24 25 23 24 26 27 27 28 29 23 23 24 23
8 9 9 9 10 11 12 12 13 12 13 14 16 18 16 13 11 13 13 12 12 15 14 15 17 21 23 24 22 20 20 19 23 25 25 25 28 28 30 30 31 31 33
7 9 8 9 11 12 14 14 15 17 16 16 15 14 14 14 14 11 14 9 10 11 11 15 19 20 21 18 16 17 16 20 23 25 26 29 30 29 30 31 32 31 31
8 8 9 10 11 11 12 14 17 16 16 16 16 16 15 14 10 10 11 12 12 14 17 21 23 23 21 22 22 20 21 22 22 24 27 28 29 30 31 32 29 32 33
9 10 10 11 10 10 11 12 13 14 15 16 16 15 13 10 10 11 11 13 15 17 20 21 21 22 22 22 22 21 22 23 25 25 25 27 28 29 30 30 30 32 33
12 13 11 11 11 10 11 11 10 10 12 14 16 13 10 9 10 10 11 13 16 16 18 19 21 21 20 20 21 21 21 23 24 26 26 26 27 27 28 28 30 32 33
13 12 12 9 8 9 10 10 10 11 12 11 13 11 10 11 11 11 11 14 16 17 17 18 19 19 19 18 18 19 21 23 24 25 23 23 25 26 27 28 29 31 32
14 11 8 7 10 10 10 10 9 11 12 9 11 10 8 10 11 12 12 12 14 14 16 16 16 17 17 17 18 20 20 20 20 20 22 23 24 26 28 29 30 32 32
10 7 11 11 11 9 10 9 10 11 10 11 11 4 4 8 11 9 10 11 12 13 13 13 15 15 15 14 15 17 18 18 19 19 20 22 24 25 27 28 30 31 32
10 10 8 9 8 9 10 10 11 11 13 14 11 6 3 10 12 11 12 10 10 10 13 12 13 14 12 13 15 15 15 17 17 19 20 22 23 24 27 28 29 31 31
9 9 10 10 11 11 10 13 13 14 13 13 10 9 9 12 11 12 11 10 10 10 10 11 12 12 11 12 12 12 11 15 17 19 20 21 23 25 26 28 29 30 30
12 10 11 11 12 13 13 14 15 16 14 13 14 15 14 16 14 13 9 9 10 10 9 10 10 11 13 11 10 11 11 14 17 19 22 21 22 25 25 27 28 29 29
14 12 13 15 12 13 14 14 13 12 13 16 15 12 10 10 8 10 13 14 10 5 8 8 8 10 11 10 9 13 14 15 16 17 16 20 19 21 24 25 27 27 27
14 14 16 15 16 18 19 19 19 14 11 10 10 6 6 8 7 7 7 8 8 5 5 8 8 8 10 9 8 11 12 13 14 16 16 15 18 22 24 22 25 24 25
Wind_Direction
186 189 189 185 181 183 185 181 179 176 165 168 165 166 139 50 343 348 309 325 330 331 331 325 326 326 327 324 322 323 318 316 316 323 324 325 328 325 323 322 322 320 321
185 191 189 186 186 187 189 191 190 192 194 194 195 202 193 177 81 43 344 319 315 319 321 327 323 326 329 330 326 323 321 323 321 316 327 331 329 326 324 321 322 322 322
181 182 186 188 191 196 199 199 198 202 203 210 213 217 220 224 288 339 349 315 304 308 310 316 320 321 325 321 317 316 317 321 322 317 317 325 323 326 318 318 321 319 321
180 183 186 190 193 197 201 203 209 208 214 218 223 228 236 249 275 306 328 317 292 301 303 308 313 315 320 321 320 321 322 321 321 319 323 326 327 326 320 322 321 320 318
183 183 188 191 190 195 203 207 210 219 225 231 235 248 249 262 285 298 315 309 284 291 304 305 307 311 313 318 318 318 316 314 317 317 314 324 322 321 320 319 315 317 321
185 188 191 191 190 196 203 210 223 234 241 245 253 261 266 277 287 297 308 300 283 296 299 301 305 310 311 318 318 318 318 315 317 320 323 324 322 321 320 317 316 318 317
191 189 195 194 217 208 212 224 236 247 248 251 258 266 283 291 293 290 291 282 287 294 296 302 303 309 314 319 321 320 320 315 310 316 320 321 322 324 321 318 318 318 318
210 199 194 202 209 226 237 241 260 259 260 260 273 282 298 298 297 296 288 275 283 289 295 298 303 309 315 321 324 322 314 313 312 316 317 319 322 325 324 321 321 320 321
228 222 202 203 211 225 238 254 267 278 285 280 281 296 299 299 304 290 283 276 278 286 289 299 305 309 315 314 317 318 320 319 318 318 319 322 325 326 326 327 326 325 324
216 216 213 207 216 239 279 287 294 298 302 308 301 307 309 312 311 289 264 273 274 289 285 302 306 310 317 318 319 323 321 321 322 322 323 324 324 325 322 319 325 326 328
214 209 212 235 264 288 303 307 310 311 316 314 310 311 314 317 314 292 276 287 291 303 305 307 309 314 323 325 325 323 323 323 323 322 321 323 327 330 331 334 334 329 327
207 223 261 284 300 309 310 316 316 317 318 320 318 314 322 322 322 307 292 273 309 312 315 313 321 321 325 325 325 323 325 324 324 323 325 326 328 329 331 331 329 330 329
258 277 297 312 316 323 321 325 321 321 322 321 320 319 322 323 324 320 306 307 304 306 314 320 325 326 328 325 322 325 328 326 328 329 329 330 331 331 332 335 337 338 337
285 293 305 316 319 326 327 329 325 326 324 324 326 326 330 337 339 339 327 316 319 313 320 326 327 327 326 329 335 334 336 335 333 332 332 333 333 333 332 333 334 335 333
300 307 321 322 322 327 330 330 326 331 329 329 334 335 333 331 331 340 338 330 335 329 333 331 330 329 329 331 332 335 336 334 333 331 333 330 331 332 332 333 335 336 336
304 317 320 324 324 324 324 326 334 342 340 341 343 344 344 344 356 353 353 349 348 339 330 326 326 328 331 334 334 334 334 334 335 333 331 332 332 333 332 334 339 335 333
312 316 320 323 323 320 323 322 320 336 347 345 344 343 346 1 3 357 352 343 336 333 329 329 331 333 334 335 334 335 334 334 334 334 334 333 333 333 335 337 338 334 335
316 316 320 322 324 329 332 333 340 341 335 340 344 351 3 8 6 5 359 349 340 339 339 336 334 336 338 338 338 338 337 336 335 334 333 334 334 335 337 339 339 335 335
313 315 318 329 338 342 340 336 335 339 341 350 354 355 6 3 360 2 358 345 341 342 343 341 343 343 343 344 344 342 340 338 336 335 339 339 336 335 336 340 340 339 340
316 320 326 338 336 332 338 336 340 340 340 348 352 347 1 354 347 343 344 346 345 346 347 348 350 352 352 350 347 344 344 344 345 346 344 339 338 336 336 336 337 335 335
326 323 323 324 329 333 337 341 339 340 340 337 331 344 17 355 347 351 354 357 351 349 353 356 359 358 358 358 355 351 347 347 348 351 349 346 344 342 341 339 336 335 334
322 328 316 321 327 337 337 339 342 341 339 341 355 9 19 346 345 346 348 351 355 357 357 0 1 1 6 6 360 356 354 350 351 350 349 348 347 347 343 340 338 335 334
322 324 324 325 328 335 335 328 332 333 336 342 351 351 341 338 342 341 344 347 355 1 4 4 3 6 12 12 11 8 8 1 355 353 351 351 350 347 345 342 339 336 334
321 325 327 327 325 328 325 328 329 329 329 333 332 328 331 333 339 340 352 359 357 358 6 4 7 8 10 18 21 16 11 2 356 351 347 352 351 348 349 346 342 335 336
316 317 316 316 321 325 321 321 324 327 330 322 320 323 332 338 341 344 345 339 344 4 2 10 12 11 10 13 22 16 7 360 356 357 4 353 0 1 355 353 350 343 342
319 321 320 322 320 319 318 317 317 324 324 325 329 332 337 342 344 341 350 352 349 360 8 7 9 12 12 16 18 15 12 9 5 1 2 8 4 354 354 1 353 358 351